AEROCUBE 15A (45118 NORAD) Tracking and Keplerian Element Data

This shows tracking and keplerian element data for the satellite.

Feedback or suggestion? Click here.




ElementValue
Catalog45118
NameAEROCUBE 15A
Epoch Orbit952
Epoch Day93.86285982
Epoch Year2020
RAAN8.4842
Inclination51.6439
Eccentricity0.0011985
Argument of Perigee140.3588
Mean Anonmoly219.8273
Mean Motion15.33383488
Decay Rate1.862E-05
L11 45118U 19071H 20093.86285982 .00001862 00000-0 68314-4 0 9992
L22 45118 51.6439 8.4842 0011985 140.3588 219.8273 15.33383488 9522

Live tracking and technical data element details for AEROCUBE 15A (NORAD 45118). AEROCUBE 15A can be tracked NOW for your location showing map with azimuth and elevation plus other details from your city location.

Track the satellite on the map from your city or location and see movement details for azimuth, elevation, latitude, longitude, range, height, and movement on the map or in text.







IsCatalogInMostPopularTable: catalog: 45118, numindb: 10
Update: records affected: 1



GetName: 45118 AEROCUBE 15A

Hit Count: updated at: Fri, 03 Apr 2020 23:44:31 GMT